Regional Weather Roundup
Issued by NWS

Home | Current Version | Previous Version | Text Only | Print | Product List | Glossary On
Versions: 1 2 3 4 5 6 7 8 9 10 11 12 13 14 15 16 17 18 19 20 21 22 23 24 25 26 27 28 29 30 31 32 33 34 35 36 37 38 39 40 41 42 43 44 45 46 47 48 49 50
000
ASUS44 KJAN 031410
RWRMS

MISSISSIPPI HOURLY WEATHER ROUNDUP
NATIONAL WEATHER SERVICE JACKSON MS
900 AM CDT MON AUG 03 2015

NOTE: "FAIR: INDICATES FEW OR NO CLOUDS BELOW 12,000 FEET WITH NO
SIGNIFICANT WEATHER AND/OR OBSTRUCTIONS TO VISIBILITY.

MSZ001>002-007>008-010>013-018>021-025>028-034>036-031500-
NORTHWEST MISSISSIPPI

CITY           SKY/WX    TMP DP  RH WIND       PRES   REMARKS
CLARKSDALE     FAIR      82  73  74 S3        29.96R
CLEVELAND      FAIR      83  75  76 CALM      29.94S HX  90
GREENWOOD      SUNNY     82  70  66 CALM      29.95R
GREENVILLE     SUNNY     84  72  67 CALM      29.94R
OLIVE BRANCH   MOSUNNY   82  66  57 CALM      29.96R
OXFORD         FAIR      81  63  54 SE3       29.98R
TUNICA         SUNNY     81  72  74 CALM      29.96R
$$

MSZ003>006-009-014>017-022>024-029>033-037>039-031500-
NORTHEAST MISSISSIPPI

CITY           SKY/WX    TMP DP  RH WIND       PRES   REMARKS
COLUMBUS AFB   SUNNY     80  66  62 E1        29.95R
CORINTH        FAIR      79  66  65 CALM      29.95S
GOLDN TRIANGLE SUNNY     81  64  57 E5        29.95R
STARKVILLE     FAIR      81  66  61 SE3       29.96R
TUPELO         SUNNY     82  65  56 CALM      29.96R
$$

MSZ040-058-031500-
CENTRAL MISSISSIPPI

CITY           SKY/WX    TMP DP  RH WIND       PRES   REMARKS
JACKSON INTL   SUNNY     87  65  47 E7        29.94R
JACKSON HAWKNS SUNNY     87  64  46 E7        29.95R
MERIDIAN KEY   SUNNY     83  66  56 CALM      29.95R
MERIDIAN NAS   MOSUNNY   82  67  60 CALM      29.96R
VICKSBURG      SUNNY     84  68  58 E6        29.93R
$$

MSZ059>079-031500-
SOUTH MISSISSIPPI

CITY           SKY/WX    TMP DP  RH WIND       PRES   REMARKS
BROOKHAVEN     FAIR      84  70  61 CALM      29.96R
HATTIESBURG    SUNNY     81  68  64 CALM      29.94S
MCCOMB         SUNNY     84  71  65 VRB3      29.93S
NATCHEZ        SUNNY     81  68  65 CALM      29.93S
PINE BELT      SUNNY     81  46  30 E5        29.96R
$$

MSZ080>082-031500-
COASTAL MISSISSIPPI

CITY           SKY/WX    TMP DP  RH WIND       PRES   REMARKS
BAY ST LOUIS   SUNNY     81  70  69 VRB5      29.92S
BILOXI         MOSUNNY   83  71  67 VRB2      29.91S
PASCAGOULA     MOSUNNY   84  71  65 N8        29.92S
GULFPORT       MOSUNNY   82  71  69 N8        29.91S
$$



USA.gov is the U.S. government's official web portal to all federal, state and local government web resources and services.